| time (UTC) | temp F | wind direction | speed knots | gust knots | rain 1hr in | rain 24hr in | rain mn in | humidity % | barometer mb |
| 20260508054704 | 47 | 271 | 2.6 | 4.3 | 0.00 | 0.00 | 0.00 | 71 | 1012.9 |
| 20260508054204 | 47 | 201 | 1.7 | 4.3 | 0.00 | 0.00 | 0.00 | 72 | 1012.9 |
| 20260508053703 | 47 | 251 | 1.7 | 2.6 | 0.00 | 0.00 | 0.00 | 72 | 1013.2 |
| 20260508052704 | 47 | 257 | 1.7 | 2.6 | 0.00 | 0.00 | 0.00 | 71 | 1013.2 |
| 20260508052204 | 47 | 235 | 1.7 | 4.3 | 0.00 | 0.00 | 0.00 | 71 | 1013.2 |
| 20260508051204 | 47 | 216 | 1.7 | 6.1 | 0.00 | 0.00 | 0.00 | 71 | 1013.2 |
| 20260508050704 | 47 | 258 | 2.6 | 6.1 | 0.00 | 0.00 | 0.00 | 71 | 1013.2 |
| 20260508050204 | 47 | 179 | 1.7 | 6.1 | 0.00 | 0.00 | 0.00 | 71 | 1013.2 |
| 20260508045704 | 47 | 257 | 2.6 | 2.6 | 0.00 | 0.00 | 0.00 | 71 | 1013.2 |
| 20260508045203 | 47 | 246 | 0.9 | 4.3 | 0.00 | 0.00 | 0.00 | 71 | 1013.2 |
| 20260508044703 | 47 | 241 | 2.6 | 4.3 | 0.00 | 0.00 | 0.00 | 71 | 1013.2 |
| 20260508044203 | 46 | 229 | 2.6 | 4.3 | 0.00 | 0.00 | 0.00 | 70 | 1013.2 |
| 20260508043704 | 46 | 234 | 1.7 | 2.6 | 0.00 | 0.00 | 0.00 | 70 | 1013.2 |
| 20260508042204 | 47 | 272 | 1.7 | 4.3 | 0.00 | 0.00 | 0.00 | 68 | 1013.2 |
| 20260508041704 | 47 | 237 | 2.6 | 5.2 | 0.00 | 0.00 | 0.00 | 67 | 1013.2 |
| 20260508040703 | 47 | 215 | 1.7 | 7.0 | 0.00 | 0.00 | 0.00 | 66 | 1013.2 |
| 20260508040204 | 46 | 235 | 3.5 | 7.0 | 0.00 | 0.00 | 0.00 | 67 | 1013.2 |
| 20260508035704 | 45 | 233 | 6.1 | 7.0 | 0.00 | 0.00 | 0.00 | 68 | 1013.2 |
| 20260508035204 | 44 | 245 | 4.3 | 5.2 | 0.00 | 0.00 | 0.00 | 71 | 1013.2 |
| 20260508034704 | 42 | 163 | 1.7 | 5.2 | 0.00 | 0.00 | 0.00 | 76 | 1013.2 |
| 20260508034204 | 42 | 232 | 3.5 | 5.2 | 0.00 | 0.00 | 0.00 | 78 | 1013.2 |
| 20260508033704 | 41 | 125 | 0.0 | 0.0 | 0.00 | 0.00 | 0.00 | 79 | 1013.2 |
| 20260508033204 | 41 | 125 | 0.0 | 0.0 | 0.00 | 0.00 | 0.00 | 79 | 1013.2 |
| 20260508032704 | 41 | 125 | 0.0 | 0.0 | 0.00 | 0.00 | 0.00 | 78 | 1013.2 |
| 20260508032204 | 41 | 109 | 0.0 | 0.0 | 0.00 | 0.00 | 0.00 | 78 | 1013.2 |
| 20260508031704 | 41 | 126 | 0.0 | 0.0 | 0.00 | 0.00 | 0.00 | 77 | 1013.2 |
| 20260508030704 | 42 | 142 | 0.0 | 0.0 | 0.00 | 0.00 | 0.00 | 76 | 1013.2 |
| 20260508025704 | 42 | 115 | 0.0 | 0.0 | 0.00 | 0.00 | 0.00 | 75 | 1013.2 |
| 20260508025204 | 42 | 123 | 0.0 | 0.0 | 0.00 | 0.00 | 0.00 | 74 | 1013.2 |
| 20260508024704 | 42 | 126 | 0.0 | 0.0 | 0.00 | 0.00 | 0.00 | 73 | 1013.2 |
| 20260508024204 | 42 | 125 | 0.0 | 0.0 | 0.00 | 0.00 | 0.00 | 73 | 1013.2 |
| 20260508023704 | 42 | 115 | 0.0 | 0.0 | 0.00 | 0.00 | 0.00 | 72 | 1013.2 |
| 20260508023204 | 43 | 114 | 0.0 | 0.0 | 0.00 | 0.00 | 0.00 | 72 | 1013.2 |
| 20260508022704 | 43 | 115 | 0.0 | 0.0 | 0.00 | 0.00 | 0.00 | 72 | 1013.2 |
| 20260508022204 | 43 | 115 | 0.0 | 0.0 | 0.00 | 0.00 | 0.00 | 72 | 1013.2 |
| 20260508021204 | 44 | 124 | 0.0 | 0.0 | 0.00 | 0.00 | 0.00 | 69 | 1013.2 |
| 20260508020704 | 44 | 116 | 0.0 | 0.0 | 0.00 | 0.00 | 0.00 | 69 | 1013.2 |
| 20260508020206 | 44 | 116 | 0.0 | 0.0 | 0.00 | 0.00 | 0.00 | 68 | 1013.2 |
| 20260508015704 | 45 | 115 | 0.0 | 0.0 | 0.00 | 0.00 | 0.00 | 67 | 1013.2 |
| 20260508015204 | 45 | 130 | 0.0 | 0.0 | 0.00 | 0.00 | 0.00 | 66 | 1013.2 |
| 20260508014704 | 45 | 126 | 0.0 | 0.0 | 0.00 | 0.00 | 0.00 | 65 | 1013.2 |
| 20260508014204 | 46 | 127 | 0.0 | 0.0 | 0.00 | 0.00 | 0.00 | 66 | 1013.2 |
| 20260508013704 | 46 | 126 | 0.0 | 0.0 | 0.00 | 0.00 | 0.00 | 64 | 1012.9 |
| 20260508013204 | 47 | 150 | 0.0 | 0.0 | 0.00 | 0.00 | 0.00 | 63 | 1013.2 |
| 20260508012704 | 47 | 147 | 0.0 | 0.0 | 0.00 | 0.00 | 0.00 | 63 | 1012.9 |
| 20260508012203 | 48 | 144 | 0.0 | 0.0 | 0.00 | 0.00 | 0.00 | 61 | 1012.9 |
| 20260508011704 | 48 | 146 | 0.0 | 0.0 | 0.00 | 0.00 | 0.00 | 59 | 1012.9 |
| 20260508011204 | 49 | 142 | 0.0 | 0.0 | 0.00 | 0.00 | 0.00 | 57 | 1012.9 |
| 20260508010704 | 49 | 141 | 0.0 | 1.7 | 0.00 | 0.00 | 0.00 | 57 | 1012.9 |
| 20260508010203 | 50 | 155 | 0.0 | 1.7 | 0.00 | 0.00 | 0.00 | 55 | 1012.9 |
| 20260508005704 | 50 | 180 | 0.9 | 2.6 | 0.00 | 0.00 | 0.00 | 53 | 1012.9 |
| 20260508005204 | 50 | 190 | 0.0 | 2.6 | 0.00 | 0.00 | 0.00 | 52 | 1012.9 |
| 20260508004707 | 51 | 326 | 0.9 | 2.6 | 0.00 | 0.00 | 0.00 | 52 | 1012.9 |
| 20260508004203 | 51 | 238 | 1.7 | 2.6 | 0.00 | 0.00 | 0.00 | 51 | 1012.9 |
| 20260508003704 | 51 | 335 | 1.7 | 5.2 | 0.00 | 0.00 | 0.00 | 51 | 1012.9 |
| 20260508003204 | 51 | 199 | 2.6 | 5.2 | 0.00 | 0.00 | 0.00 | 50 | 1012.9 |
| 20260508002203 | 52 | 297 | 2.6 | 8.7 | 0.00 | 0.00 | 0.00 | 49 | 1012.6 |
| 20260508001704 | 52 | 273 | 1.7 | 8.7 | 0.00 | 0.00 | 0.00 | 49 | 1012.5 |
| 20260508001204 | 52 | 235 | 3.5 | 8.7 | 0.00 | 0.00 | 0.00 | 48 | 1012.5 |
| 20260508000704 | 53 | 285 | 5.2 | 7.8 | 0.00 | 0.00 | 0.00 | 48 | 1012.5 |
| 20260508000205 | 53 | 264 | 2.6 | 7.0 | 0.00 | 0.00 | 0.00 | 48 | 1012.5 |
| 20260507235704 | 53 | 340 | 4.3 | 7.8 | 0.00 | 0.00 | 0.00 | 47 | 1012.5 |
| 20260507234704 | 53 | 310 | 6.1 | 7.8 | 0.00 | 0.00 | 0.00 | 46 | 1012.5 |
| 20260507234203 | 53 | 333 | 3.5 | 7.8 | 0.00 | 0.00 | 0.00 | 47 | 1012.5 |
| 20260507233704 | 53 | 275 | 3.5 | 10.4 | 0.00 | 0.00 | 0.00 | 49 | 1012.5 |
| 20260507232704 | 53 | 308 | 7.8 | 13.0 | 0.00 | 0.00 | 0.00 | 46 | 1012.5 |
| 20260507232204 | 53 | 312 | 5.2 | 13.0 | 0.00 | 0.00 | 0.00 | 46 | 1012.2 |
| 20260507231704 | 54 | 260 | 7.8 | 13.0 | 0.00 | 0.00 | 0.00 | 45 | 1012.5 |
| 20260507231204 | 54 | 272 | 6.1 | 10.4 | 0.00 | 0.00 | 0.00 | 45 | 1012.5 |
| 20260507230204 | 54 | 290 | 5.2 | 11.3 | 0.00 | 0.00 | 0.00 | 45 | 1012.5 |
| 20260507225704 | 54 | 266 | 6.1 | 12.2 | 0.00 | 0.00 | 0.00 | 46 | 1012.5 |
| 20260507225204 | 54 | 299 | 7.8 | 12.2 | 0.00 | 0.00 | 0.00 | 45 | 1012.5 |
| 20260507224705 | 55 | 353 | 7.0 | 13.0 | 0.00 | 0.00 | 0.00 | 44 | 1012.5 |
| 20260507224204 | 55 | 329 | 5.2 | 13.0 | 0.00 | 0.00 | 0.00 | 44 | 1012.5 |
| 20260507223704 | 55 | 316 | 8.7 | 13.9 | 0.00 | 0.00 | 0.00 | 44 | 1012.5 |
| 20260507223204 | 55 | 286 | 9.6 | 13.9 | 0.00 | 0.00 | 0.00 | 44 | 1012.5 |
| 20260507222704 | 55 | 248 | 8.7 | 13.9 | 0.00 | 0.00 | 0.00 | 44 | 1012.5 |
| 20260507222204 | 55 | 281 | 6.1 | 13.0 | 0.00 | 0.00 | 0.00 | 45 | 1012.5 |
| 20260507221704 | 56 | 246 | 6.1 | 10.4 | 0.00 | 0.00 | 0.00 | 45 | 1012.5 |
| 20260507221204 | 55 | 263 | 7.8 | 14.8 | 0.00 | 0.00 | 0.00 | 45 | 1012.5 |
| 20260507220704 | 55 | 286 | 7.8 | 14.8 | 0.00 | 0.00 | 0.00 | 44 | 1012.5 |
| 20260507220204 | 55 | 297 | 7.0 | 14.8 | 0.00 | 0.00 | 0.00 | 44 | 1012.2 |
| 20260507215203 | 56 | 263 | 8.7 | 17.4 | 0.00 | 0.00 | 0.00 | 49 | 1012.2 |
| 20260507214204 | 56 | 331 | 5.2 | 12.2 | 0.00 | 0.00 | 0.00 | 53 | 1012.2 |
| 20260507213704 | 55 | 299 | 5.2 | 10.4 | 0.00 | 0.00 | 0.00 | 55 | 1012.2 |
| 20260507212704 | 54 | 292 | 5.2 | 7.0 | 0.00 | 0.00 | 0.00 | 55 | 1012.2 |
| 20260507212203 | 55 | 275 | 6.1 | 7.0 | 0.00 | 0.00 | 0.00 | 56 | 1012.2 |
| 20260507211704 | 54 | 320 | 3.5 | 10.4 | 0.00 | 0.00 | 0.00 | 57 | 1012.2 |
| 20260507210704 | 53 | 295 | 7.8 | 10.4 | 0.00 | 0.00 | 0.00 | 58 | 1011.9 |
| 20260507210203 | 54 | 335 | 6.1 | 10.4 | 0.00 | 0.00 | 0.00 | 57 | 1011.9 |
| 20260507205704 | 54 | 322 | 5.2 | 10.4 | 0.00 | 0.00 | 0.00 | 60 | 1011.9 |
| 20260507205204 | 53 | 319 | 4.3 | 8.7 | 0.00 | 0.00 | 0.00 | 60 | 1011.9 |
| 20260507204704 | 53 | 359 | 2.6 | 10.4 | 0.00 | 0.00 | 0.00 | 61 | 1012.2 |
| 20260507204204 | 52 | 340 | 3.5 | 10.4 | 0.00 | 0.00 | 0.00 | 61 | 1011.9 |
| 20260507203704 | 52 | 316 | 4.3 | 10.4 | 0.00 | 0.00 | 0.00 | 60 | 1011.9 |
| 20260507203204 | 52 | 350 | 2.6 | 12.2 | 0.00 | 0.00 | 0.00 | 59 | 1011.9 |
| 20260507202204 | 53 | 302 | 5.2 | 12.2 | 0.00 | 0.00 | 0.00 | 59 | 1011.9 |
| 20260507201704 | 53 | 296 | 4.3 | 7.8 | 0.00 | 0.00 | 0.00 | 58 | 1011.9 |
| 20260507201204 | 53 | 319 | 3.5 | 11.3 | 0.00 | 0.00 | 0.00 | 59 | 1011.9 |
| 20260507200704 | 53 | 299 | 5.2 | 11.3 | 0.00 | 0.00 | 0.00 | 58 | 1011.9 |
| 20260507200204 | 54 | 303 | 6.1 | 11.3 | 0.00 | 0.00 | 0.00 | 57 | 1011.9 |
| 20260507195704 | 54 | 319 | 4.3 | 7.8 | 0.00 | 0.00 | 0.00 | 57 | 1011.9 |
| 20260507195204 | 54 | 327 | 5.2 | 10.4 | 0.00 | 0.00 | 0.00 | 56 | 1011.9 |
| 20260507194204 | 54 | 353 | 6.1 | 10.4 | 0.00 | 0.00 | 0.00 | 55 | 1012.2 |
| 20260507193704 | 55 | 310 | 2.6 | 10.4 | 0.00 | 0.00 | 0.00 | 54 | 1011.9 |
| 20260507193204 | 56 | 316 | 4.3 | 8.7 | 0.00 | 0.00 | 0.00 | 54 | 1012.2 |
| 20260507192704 | 56 | 295 | 6.1 | 8.7 | 0.00 | 0.00 | 0.00 | 52 | 1012.2 |
| 20260507190704 | 56 | 300 | 4.3 | 7.8 | 0.00 | 0.00 | 0.00 | 53 | 1012.2 |
| 20260507190204 | 55 | 357 | 6.1 | 7.8 | 0.00 | 0.00 | 0.00 | 53 | 1012.2 |
| 20260507185704 | 57 | 341 | 6.1 | 8.7 | 0.00 | 0.00 | 0.00 | 52 | 1012.2 |
| 20260507185205 | 55 | 341 | 2.6 | 10.4 | 0.00 | 0.00 | 0.00 | 51 | 1012.2 |
| 20260507183704 | 57 | 319 | 11.3 | 14.8 | 0.00 | 0.00 | 0.00 | 50 | 1012.2 |
| 20260507183204 | 57 | 296 | 5.2 | 10.4 | 0.00 | 0.00 | 0.00 | 49 | 1012.2 |
| 20260507182704 | 55 | 301 | 4.3 | 8.7 | 0.00 | 0.00 | 0.00 | 52 | 1012.2 |
| 20260507182203 | 55 | 351 | 5.2 | 10.4 | 0.00 | 0.00 | 0.00 | 50 | 1012.2 |
| 20260507181704 | 55 | 291 | 2.6 | 12.2 | 0.00 | 0.00 | 0.00 | 49 | 1012.2 |
| 20260507181204 | 56 | 351 | 7.0 | 12.2 | 0.00 | 0.00 | 0.00 | 50 | 1012.2 |
| 20260507180704 | 56 | 291 | 8.7 | 12.2 | 0.00 | 0.00 | 0.00 | 49 | 1012.2 |
| 20260507175704 | 58 | 355 | 5.2 | 12.2 | 0.00 | 0.00 | 0.00 | 52 | 1012.2 |
| 20260507175204 | 56 | 31 | 5.2 | 10.4 | 0.00 | 0.00 | 0.00 | 51 | 1012.2 |
| 20260507174704 | 56 | 36 | 5.2 | 10.4 | 0.00 | 0.00 | 0.00 | 53 | 1012.5 |
| 20260507174204 | 56 | 312 | 5.2 | 10.4 | 0.00 | 0.00 | 0.00 | 53 | 1012.2 |
| 20260507173705 | 57 | 292 | 6.1 | 10.4 | 0.00 | 0.00 | 0.00 | 54 | 1012.2 |
| 20260507173204 | 56 | 355 | 6.1 | 10.4 | 0.00 | 0.00 | 0.00 | 54 | 1012.2 |
| 20260507171704 | 54 | 327 | 3.5 | 10.4 | 0.00 | 0.00 | 0.00 | 57 | 1012.5 |
| 20260507171204 | 55 | 296 | 5.2 | 10.4 | 0.00 | 0.00 | 0.00 | 57 | 1012.5 |
| 20260507170704 | 55 | 274 | 8.7 | 10.4 | 0.00 | 0.00 | 0.00 | 56 | 1012.5 |
| 20260507170204 | 56 | 322 | 2.6 | 7.0 | 0.00 | 0.00 | 0.00 | 59 | 1012.5 |
| 20260507165704 | 54 | 327 | 5.2 | 13.0 | 0.00 | 0.00 | 0.00 | 59 | 1012.5 |
| 20260507165204 | 55 | 311 | 5.2 | 13.0 | 0.00 | 0.00 | 0.00 | 58 | 1012.5 |
| 20260507164704 | 55 | 267 | 7.8 | 13.0 | 0.00 | 0.00 | 0.00 | 57 | 1012.2 |
| 20260507164204 | 56 | 293 | 5.2 | 8.7 | 0.00 | 0.00 | 0.00 | 56 | 1012.5 |
| 20260507163704 | 54 | 293 | 4.3 | 8.7 | 0.00 | 0.00 | 0.00 | 59 | 1012.5 |
| 20260507163204 | 55 | 308 | 8.7 | 8.7 | 0.00 | 0.00 | 0.00 | 57 | 1012.2 |
| 20260507162704 | 55 | 317 | 3.5 | 8.7 | 0.00 | 0.00 | 0.00 | 59 | 1012.2 |
| 20260507162204 | 56 | 281 | 7.0 | 10.4 | 0.00 | 0.00 | 0.00 | 56 | 1012.2 |
| 20260507161704 | 55 | 298 | 3.5 | 10.4 | 0.00 | 0.00 | 0.00 | 59 | 1012.2 |
| 20260507160704 | 56 | 331 | 4.3 | 7.8 | 0.00 | 0.00 | 0.00 | 56 | 1012.5 |
| 20260507160204 | 57 | 314 | 5.2 | 7.8 | 0.00 | 0.00 | 0.00 | 53 | 1012.2 |
| 20260507155704 | 55 | 318 | 6.1 | 7.8 | 0.00 | 0.00 | 0.00 | 52 | 1012.2 |
| 20260507155204 | 55 | 295 | 4.3 | 8.7 | 0.00 | 0.00 | 0.00 | 53 | 1012.2 |
| 20260507153703 | 56 | 323 | 5.2 | 10.4 | 0.00 | 0.00 | 0.00 | 51 | 1012.5 |
| 20260507153204 | 56 | 322 | 5.2 | 10.4 | 0.00 | 0.00 | 0.00 | 53 | 1012.5 |
| 20260507152204 | 54 | 17 | 2.6 | 7.8 | 0.00 | 0.00 | 0.00 | 54 | 1012.5 |
| 20260507151704 | 54 | 357 | 5.2 | 6.1 | 0.00 | 0.00 | 0.00 | 56 | 1012.5 |
| 20260507151204 | 54 | 288 | 1.7 | 7.0 | 0.00 | 0.00 | 0.00 | 54 | 1012.5 |
| 20260507150704 | 53 | 310 | 3.5 | 7.0 | 0.00 | 0.00 | 0.00 | 53 | 1012.5 |
| 20260507145704 | 53 | 0 | 2.6 | 6.1 | 0.00 | 0.00 | 0.00 | 58 | 1012.5 |
| 20260507145204 | 55 | 3 | 2.6 | 7.0 | 0.00 | 0.00 | 0.00 | 59 | 1012.5 |
| 20260507144204 | 54 | 134 | 1.7 | 7.0 | 0.00 | 0.00 | 0.00 | 56 | 1012.5 |
| 20260507143704 | 53 | 247 | 3.5 | 7.0 | 0.00 | 0.00 | 0.00 | 54 | 1012.5 |
| 20260507143204 | 53 | 226 | 4.3 | 7.0 | 0.00 | 0.00 | 0.00 | 53 | 1012.5 |
| 20260507142204 | 53 | 126 | 1.7 | 6.1 | 0.00 | 0.00 | 0.00 | 60 | 1012.9 |
| 20260507141704 | 53 | 18 | 0.9 | 6.1 | 0.00 | 0.00 | 0.00 | 61 | 1012.9 |
| 20260507141204 | 53 | 305 | 3.5 | 6.1 | 0.00 | 0.00 | 0.00 | 60 | 1012.9 |
| 20260507140704 | 53 | 323 | 1.7 | 6.1 | 0.00 | 0.00 | 0.00 | 66 | 1012.9 |
| 20260507140204 | 53 | 342 | 2.6 | 6.1 | 0.00 | 0.00 | 0.00 | 65 | 1012.9 |
| 20260507135704 | 52 | 241 | 3.5 | 6.1 | 0.00 | 0.00 | 0.00 | 68 | 1013.2 |
| 20260507134704 | 52 | 260 | 1.7 | 6.1 | 0.00 | 0.00 | 0.00 | 68 | 1013.2 |
| 20260507134203 | 51 | 208 | 5.2 | 6.1 | 0.00 | 0.00 | 0.00 | 69 | 1013.2 |
| 20260507133704 | 51 | 305 | 2.6 | 6.1 | 0.00 | 0.00 | 0.00 | 68 | 1013.2 |
| 20260507133204 | 51 | 266 | 2.6 | 5.2 | 0.00 | 0.00 | 0.00 | 69 | 1013.2 |
| 20260507132204 | 50 | 284 | 2.6 | 5.2 | 0.00 | 0.00 | 0.00 | 70 | 1013.2 |
| 20260507130703 | 49 | 221 | 2.6 | 5.2 | 0.00 | 0.00 | 0.00 | 72 | 1013.2 |
| 20260507130204 | 49 | 321 | 2.6 | 2.6 | 0.00 | 0.00 | 0.00 | 75 | 1013.2 |
| 20260507125704 | 49 | 187 | 1.7 | 4.3 | 0.00 | 0.00 | 0.00 | 76 | 1013.2 |
| 20260507124704 | 48 | 322 | 1.7 | 6.1 | 0.00 | 0.00 | 0.00 | 76 | 1013.5 |
| 20260507124204 | 48 | 300 | 1.7 | 6.1 | 0.00 | 0.00 | 0.00 | 76 | 1013.5 |
| 20260507123704 | 48 | 195 | 2.6 | 5.2 | 0.00 | 0.00 | 0.00 | 76 | 1013.2 |
| 20260507123204 | 48 | 320 | 4.3 | 5.2 | 0.00 | 0.00 | 0.00 | 78 | 1013.2 |
| 20260507122705 | 48 | 292 | 2.6 | 5.2 | 0.00 | 0.00 | 0.00 | 78 | 1013.2 |
| 20260507122204 | 47 | 310 | 2.6 | 5.2 | 0.00 | 0.00 | 0.00 | 78 | 1013.2 |
| 20260507121704 | 47 | 254 | 3.5 | 5.2 | 0.00 | 0.01 | 0.00 | 78 | 1013.2 |
| 20260507121204 | 46 | 274 | 1.7 | 4.3 | 0.00 | 0.01 | 0.00 | 80 | 1012.9 |
| 20260507120204 | 45 | 217 | 0.9 | 4.3 | 0.00 | 0.01 | 0.00 | 87 | 1012.9 |
| 20260507115705 | 44 | 221 | 0.0 | 4.3 | 0.00 | 0.01 | 0.00 | 89 | 1013.2 |
| 20260507115204 | 43 | 197 | 0.9 | 4.3 | 0.00 | 0.01 | 0.00 | 91 | 1013.2 |
| 20260507114704 | 43 | 132 | 0.0 | 1.7 | 0.00 | 0.01 | 0.00 | 93 | 1012.9 |
| 20260507114204 | 42 | 120 | 0.0 | 1.7 | 0.00 | 0.01 | 0.00 | 93 | 1013.2 |
| 20260507113704 | 42 | 108 | 0.0 | 1.7 | 0.00 | 0.01 | 0.00 | 93 | 1013.2 |
| 20260507113204 | 42 | 105 | 0.9 | 0.9 | 0.00 | 0.01 | 0.00 | 93 | 1013.2 |
| 20260507112704 | 42 | 142 | 0.0 | 0.0 | 0.00 | 0.01 | 0.00 | 92 | 1012.9 |
| 20260507112204 | 42 | 120 | 0.0 | 0.0 | 0.00 | 0.01 | 0.00 | 91 | 1012.9 |
| 20260507111704 | 41 | 102 | 0.0 | 0.0 | 0.00 | 0.01 | 0.00 | 91 | 1012.9 |
| 20260507111204 | 42 | 110 | 0.0 | 0.0 | 0.00 | 0.01 | 0.00 | 91 | 1012.9 |
| 20260507110704 | 42 | 108 | 0.0 | 0.0 | 0.00 | 0.01 | 0.00 | 91 | 1012.9 |
| 20260507110204 | 42 | 112 | 0.0 | 0.0 | 0.00 | 0.01 | 0.00 | 90 | 1012.9 |
| 20260507105704 | 42 | 104 | 0.0 | 0.0 | 0.00 | 0.01 | 0.00 | 90 | 1012.9 |
| 20260507105203 | 42 | 110 | 0.0 | 0.0 | 0.00 | 0.01 | 0.00 | 89 | 1012.9 |
| 20260507104704 | 42 | 109 | 0.0 | 0.0 | 0.00 | 0.01 | 0.00 | 89 | 1012.5 |
| 20260507104204 | 42 | 112 | 0.0 | 0.0 | 0.00 | 0.01 | 0.00 | 89 | 1012.5 |
| 20260507103704 | 42 | 112 | 0.0 | 0.0 | 0.00 | 0.01 | 0.00 | 88 | 1012.9 |
| 20260507103204 | 42 | 112 | 0.0 | 0.0 | 0.00 | 0.01 | 0.00 | 88 | 1012.5 |
| 20260507102704 | 42 | 124 | 0.0 | 0.9 | 0.00 | 0.01 | 0.00 | 88 | 1012.5 |
| 20260507102204 | 42 | 164 | 0.0 | 1.7 | 0.00 | 0.01 | 0.00 | 88 | 1012.5 |
| 20260507101704 | 42 | 113 | 0.0 | 1.7 | 0.00 | 0.01 | 0.00 | 88 | 1012.9 |
| 20260507101205 | 42 | 167 | 0.9 | 1.7 | 0.00 | 0.01 | 0.00 | 88 | 1012.9 |
| 20260507100704 | 42 | 169 | 0.0 | 0.0 | 0.00 | 0.01 | 0.00 | 87 | 1012.9 |
| 20260507095705 | 42 | 134 | 0.0 | 1.7 | 0.00 | 0.01 | 0.00 | 87 | 1012.5 |
| 20260507095204 | 43 | 216 | 0.0 | 2.6 | 0.00 | 0.02 | 0.00 | 87 | 1012.5 |
| 20260507094705 | 43 | 168 | 0.0 | 2.6 | 0.00 | 0.02 | 0.00 | 86 | 1012.5 |
| 20260507093705 | 43 | 146 | 0.0 | 4.3 | 0.00 | 0.03 | 0.00 | 86 | 1012.5 |
| 20260507092704 | 42 | 185 | 1.7 | 2.6 | 0.00 | 0.04 | 0.00 | 87 | 1012.5 |
| 20260507091704 | 42 | 199 | 0.0 | 4.3 | 0.00 | 0.05 | 0.00 | 89 | 1012.9 |
| 20260507091204 | 42 | 187 | 2.6 | 4.3 | 0.00 | 0.05 | 0.00 | 90 | 1012.5 |
| 20260507090704 | 42 | 191 | 1.7 | 4.3 | 0.00 | 0.05 | 0.00 | 92 | 1012.9 |
| 20260507090205 | 42 | 189 | 0.9 | 4.3 | 0.00 | 0.05 | 0.00 | 93 | 1012.9 |
| 20260507085704 | 41 | 114 | 0.0 | 0.0 | 0.00 | 0.06 | 0.00 | 96 | 1012.9 |
| 20260507085205 | 41 | 123 | 0.0 | 0.0 | 0.00 | 0.06 | 0.00 | 97 | 1012.9 |
| 20260507084705 | 41 | 155 | 0.0 | 0.0 | 0.00 | 0.06 | 0.00 | 98 | 1012.9 |
| 20260507084205 | 40 | 167 | 0.0 | 0.0 | 0.00 | 0.07 | 0.00 | 98 | 1012.9 |
| 20260507083704 | 40 | 157 | 0.0 | 0.0 | 0.00 | 0.07 | 0.00 | 98 | 1012.9 |
| 20260507083205 | 39 | 265 | 0.0 | 0.0 | 0.00 | 0.08 | 0.00 | 98 | 1012.9 |
| 20260507082705 | 39 | 160 | 0.0 | 0.0 | 0.00 | 0.09 | 0.00 | 98 | 1012.9 |
| 20260507082204 | 39 | 124 | 0.0 | 0.0 | 0.00 | 0.09 | 0.00 | 97 | 1012.9 |
| 20260507081704 | 39 | 123 | 0.0 | 0.0 | 0.00 | 0.10 | 0.00 | 97 | 1012.9 |
| 20260507081204 | 39 | 119 | 0.0 | 0.0 | 0.00 | 0.10 | 0.00 | 97 | 1012.9 |
| 20260507080704 | 39 | 48 | 0.0 | 0.0 | 0.00 | 0.11 | 0.00 | 97 | 1013.2 |
| 20260507075704 | 39 | 311 | 0.0 | 0.0 | 0.00 | 0.12 | 0.00 | 97 | 1012.9 |
| 20260507075205 | 39 | 110 | 0.0 | 0.0 | 0.00 | 0.12 | 0.00 | 96 | 1012.9 |
| 20260507074705 | 39 | 111 | 0.0 | 0.0 | 0.00 | 0.12 | 0.00 | 96 | 1012.9 |
| 20260507073704 | 39 | 102 | 0.0 | 0.0 | 0.00 | 0.13 | 0.00 | 96 | 1012.9 |
| 20260507073204 | 38 | 113 | 0.0 | 0.0 | 0.00 | 0.14 | 0.00 | 95 | 1012.9 |
| 20260507072704 | 39 | 112 | 0.0 | 0.0 | 0.00 | 0.14 | 0.00 | 95 | 1012.9 |
| 20260507072205 | 39 | 71 | 0.0 | 0.0 | 0.00 | 0.14 | 0.00 | 95 | 1013.2 |
| 20260507071704 | 39 | 70 | 0.0 | 0.0 | 0.00 | 0.14 | 0.00 | 95 | 1012.9 |
| 20260507071204 | 39 | 70 | 0.0 | 0.0 | 0.00 | 0.14 | 0.00 | 94 | 1012.9 |
| 20260507070704 | 39 | 110 | 0.0 | 0.0 | 0.00 | 0.15 | 0.00 | 94 | 1013.2 |
| 20260507065704 | 39 | 98 | 0.0 | 0.0 | 0.00 | 0.15 | 0.00 | 93 | 1013.2 |
| 20260507065204 | 39 | 97 | 0.0 | 0.0 | 0.00 | 0.15 | 0.00 | 93 | 1013.2 |
| 20260507064705 | 40 | 98 | 0.0 | 0.0 | 0.00 | 0.15 | 0.00 | 93 | 1013.2 |
| 20260507064204 | 40 | 98 | 0.0 | 0.0 | 0.00 | 0.15 | 0.00 | 92 | 1013.2 |
| 20260507063704 | 40 | 98 | 0.0 | 0.0 | 0.00 | 0.16 | 0.00 | 91 | 1013.2 |
| 20260507063204 | 40 | 98 | 0.0 | 0.0 | 0.00 | 0.16 | 0.00 | 91 | 1013.5 |
| 20260507062704 | 41 | 98 | 0.0 | 0.0 | 0.00 | 0.16 | 0.00 | 91 | 1013.5 |
| 20260507062204 | 41 | 86 | 0.0 | 0.0 | 0.00 | 0.17 | 0.00 | 90 | 1013.5 |
| 20260507061704 | 41 | 98 | 0.0 | 0.0 | 0.00 | 0.18 | 0.00 | 90 | 1013.5 |
| 20260507061204 | 41 | 110 | 0.0 | 0.0 | 0.00 | 0.19 | 0.00 | 89 | 1013.5 |
| 20260507060204 | 41 | 107 | 0.0 | 0.0 | 0.00 | 0.21 | 0.00 | 89 | 1013.5 |
| 20260507055704 | 42 | 113 | 0.0 | 0.0 | 0.00 | 0.21 | 0.00 | 89 | 1013.5 |
| 20260507055204 | 42 | 102 | 0.0 | 0.0 | 0.00 | 0.22 | 0.00 | 89 | 1013.5 |